Time,TemperatureF,DewpointF,PressureIn,WindDirection,WindDirectionDegrees,WindSpeedMPH,WindSpeedGustMPH,Humidity,HourlyPrecipIn,Conditions,Clouds,dailyrainin,SoftwareType,DateUTC
2013-05-27 00:02:00,66.0,-99.9,-100.00,SW,214,2.0,-999.0,-999,0.00,,,0.04,,2013-05-27 05:02:00,
2013-05-27 00:12:00,66.0,-99.9,-100.00,SW,214,2.0,-999.0,-999,0.00,,,0.04,,2013-05-27 05:12:00,
2013-05-27 00:22:00,66.0,-99.9,-100.00,SW,214,2.0,-999.0,-999,0.00,,,0.04,,2013-05-27 05:22:00,
2013-05-27 00:32:00,67.0,-99.9,-100.00,SE,141,3.0,-999.0,-999,0.00,,,0.04,,2013-05-27 05:32:00,
2013-05-27 00:42:00,67.0,-99.9,-100.00,SE,141,3.0,-999.0,-999,0.00,,,0.04,,2013-05-27 05:42:00,
2013-05-27 00:52:00,67.0,-99.9,-100.00,SE,141,3.0,-999.0,-999,0.00,,,0.04,,2013-05-27 05:52:00,
2013-05-27 01:02:00,68.0,-99.9,-100.00,ESE,123,2.0,-999.0,-999,0.00,,,0.04,,2013-05-27 06:02:00,
2013-05-27 01:11:00,68.0,-99.9,-100.00,ESE,123,2.0,-999.0,-999,0.00,,,0.04,,2013-05-27 06:11:00,
2013-05-27 01:22:00,68.0,-99.9,-100.00,ESE,123,2.0,-999.0,-999,0.00,,,0.04,,2013-05-27 06:22:00,
2013-05-27 01:32:00,68.0,-99.9,-100.00,SE,136,7.0,-999.0,-999,0.00,,,0.04,,2013-05-27 06:32:00,
2013-05-27 01:42:00,68.0,-99.9,-100.00,SE,136,7.0,-999.0,-999,0.00,,,0.04,,2013-05-27 06:42:00,
2013-05-27 01:52:00,68.0,-99.9,-100.00,SE,136,7.0,-999.0,-999,0.00,,,0.04,,2013-05-27 06:52:00,
2013-05-27 02:02:00,68.0,-99.9,-100.00,SE,142,6.0,-999.0,-999,0.00,,,0.04,,2013-05-27 07:02:00,
2013-05-27 02:11:00,68.0,-99.9,-100.00,SE,142,6.0,-999.0,-999,0.00,,,0.04,,2013-05-27 07:11:00,
2013-05-27 02:22:00,68.0,-99.9,-100.00,SE,142,6.0,-999.0,-999,0.00,,,0.04,,2013-05-27 07:22:00,
2013-05-27 02:32:00,67.0,-99.9,-100.00,WNW,291,3.0,-999.0,-999,0.00,,,0.04,,2013-05-27 07:32:00,
2013-05-27 02:42:00,67.0,-99.9,-100.00,WNW,291,3.0,-999.0,-999,0.00,,,0.04,,2013-05-27 07:42:00,
2013-05-27 03:00:00,66.0,-99.9,-100.00,SSE,151,1.0,-999.0,-999,0.01,,,0.05,,2013-05-27 08:00:00,
2013-05-27 03:02:00,67.0,-99.9,-100.00,West,259,2.0,-999.0,-999,0.00,,,0.04,,2013-05-27 08:02:00,
2013-05-27 03:12:00,67.0,-99.9,-100.00,West,259,2.0,-999.0,-999,0.00,,,0.04,,2013-05-27 08:12:00,
2013-05-27 03:22:00,67.0,-99.9,-100.00,West,259,2.0,-999.0,-999,0.00,,,0.04,,2013-05-27 08:22:00,
2013-05-27 03:33:00,66.0,-99.9,-100.00,SSE,151,1.0,-999.0,-999,0.01,,,0.05,,2013-05-27 08:33:00,
2013-05-27 03:42:00,66.0,-99.9,-100.00,SSE,151,1.0,-999.0,-999,0.01,,,0.05,,2013-05-27 08:42:00,
2013-05-27 03:52:00,66.0,-99.9,-100.00,SSE,151,1.0,-999.0,-999,0.01,,,0.05,,2013-05-27 08:52:00,
2013-05-27 04:33:00,66.0,-99.9,-100.00,South,176,3.0,-999.0,-999,0.03,,,0.08,,2013-05-27 09:33:00,
2013-05-27 04:43:00,66.0,-99.9,-100.00,South,176,3.0,-999.0,-999,0.03,,,0.08,,2013-05-27 09:43:00,
2013-05-27 04:53:00,66.0,-99.9,-100.00,South,176,3.0,-999.0,-999,0.03,,,0.08,,2013-05-27 09:53:00,
2013-05-27 05:03:00,66.0,-99.9,-100.00,WNW,294,2.0,-999.0,-999,0.00,,,0.08,,2013-05-27 10:03:00,
2013-05-27 05:12:00,66.0,-99.9,-100.00,WNW,294,2.0,-999.0,-999,0.00,,,0.08,,2013-05-27 10:12:00,
2013-05-27 05:23:00,66.0,-99.9,-100.00,WNW,294,2.0,-999.0,-999,0.00,,,0.08,,2013-05-27 10:23:00,
2013-05-27 05:32:00,65.0,-99.9,-100.00,WSW,240,3.0,-999.0,-999,0.01,,,0.09,,2013-05-27 10:32:00,
2013-05-27 05:42:00,65.0,-99.9,-100.00,WSW,240,3.0,-999.0,-999,0.01,,,0.09,,2013-05-27 10:42:00,
2013-05-27 05:53:00,65.0,-99.9,-100.00,WSW,240,3.0,-999.0,-999,0.01,,,0.09,,2013-05-27 10:53:00,
2013-05-27 06:02:00,65.0,-99.9,-100.00,SSW,212,3.0,-999.0,-999,0.01,,,0.09,,2013-05-27 11:02:00,
2013-05-27 06:12:00,65.0,-99.9,-100.00,SSW,212,3.0,-999.0,-999,0.01,,,0.09,,2013-05-27 11:12:00,
2013-05-27 06:22:00,65.0,-99.9,-100.00,SSW,212,3.0,-999.0,-999,0.01,,,0.09,,2013-05-27 11:22:00,
2013-05-27 06:32:00,66.0,-99.9,-100.00,West,281,1.0,-999.0,-999,0.00,,,0.09,,2013-05-27 11:32:00,
2013-05-27 06:42:00,66.0,-99.9,-100.00,West,281,1.0,-999.0,-999,0.00,,,0.09,,2013-05-27 11:42:00,
2013-05-27 06:52:00,66.0,-99.9,-100.00,West,281,1.0,-999.0,-999,0.00,,,0.09,,2013-05-27 11:52:00,
2013-05-27 07:02:00,65.0,-99.9,-100.00,NNW,339,2.0,-999.0,-999,0.00,,,0.09,,2013-05-27 12:02:00,
2013-05-27 07:12:00,65.0,-99.9,-100.00,NNW,339,2.0,-999.0,-999,0.00,,,0.09,,2013-05-27 12:12:00,
2013-05-27 07:22:00,65.0,-99.9,-100.00,NNW,339,2.0,-999.0,-999,0.00,,,0.09,,2013-05-27 12:22:00,
2013-05-27 07:32:00,66.0,-99.9,-100.00,North,350,1.0,-999.0,-999,0.00,,,0.09,,2013-05-27 12:32:00,
2013-05-27 07:42:00,66.0,-99.9,-100.00,North,350,1.0,-999.0,-999,0.00,,,0.09,,2013-05-27 12:42:00,
2013-05-27 07:52:00,67.0,-99.9,-100.00,NW,323,3.0,-999.0,-999,0.00,,,0.05,,2013-05-27 12:52:00,
2013-05-27 08:02:00,67.0,-99.9,-100.00,NW,323,3.0,-999.0,-999,0.00,,,0.05,,2013-05-27 13:02:00,
2013-05-27 08:11:00,67.0,-99.9,-100.00,NW,323,3.0,-999.0,-999,0.00,,,0.05,,2013-05-27 13:11:00,
2013-05-27 08:22:00,67.0,-99.9,-100.00,NW,323,3.0,-999.0,-999,0.00,,,0.05,,2013-05-27 13:22:00,
2013-05-27 08:32:00,66.0,-99.9,-100.00,NW,323,6.0,-999.0,-999,0.00,,,0.05,,2013-05-27 13:32:00,
2013-05-27 08:42:00,66.0,-99.9,-100.00,NW,323,6.0,-999.0,-999,0.00,,,0.05,,2013-05-27 13:42:00,
2013-05-27 08:53:00,66.0,-99.9,-100.00,NW,323,6.0,-999.0,-999,0.00,,,0.05,,2013-05-27 13:53:00,
2013-05-27 09:02:00,67.0,-99.9,-100.00,NW,326,5.0,-999.0,-999,0.00,,,0.05,,2013-05-27 14:02:00,
2013-05-27 09:11:00,67.0,-99.9,-100.00,NW,326,5.0,-999.0,-999,0.00,,,0.05,,2013-05-27 14:11:00,
2013-05-27 09:22:00,67.0,-99.9,-100.00,NW,326,5.0,-999.0,-999,0.00,,,0.05,,2013-05-27 14:22:00,
2013-05-27 09:32:00,67.0,-99.9,-100.00,NNW,339,5.0,-999.0,-999,0.00,,,0.05,,2013-05-27 14:32:00,
2013-05-27 09:42:00,67.0,-99.9,-100.00,NNW,339,5.0,-999.0,-999,0.00,,,0.05,,2013-05-27 14:42:00,
2013-05-27 09:52:00,67.0,-99.9,-100.00,NNW,339,5.0,-999.0,-999,0.00,,,0.05,,2013-05-27 14:52:00,
2013-05-27 10:02:00,70.0,-99.9,-100.00,ESE,117,1.0,-999.0,-999,0.00,,,0.05,,2013-05-27 15:02:00,
2013-05-27 10:12:00,70.0,-99.9,-100.00,ESE,117,1.0,-999.0,-999,0.00,,,0.05,,2013-05-27 15:12:00,
2013-05-27 10:22:00,70.0,-99.9,-100.00,ESE,117,1.0,-999.0,-999,0.00,,,0.05,,2013-05-27 15:22:00,
2013-05-27 10:33:00,69.0,-99.9,-100.00,SSE,147,4.0,-999.0,-999,0.00,,,0.05,,2013-05-27 15:33:00,
2013-05-27 10:43:00,69.0,-99.9,-100.00,SSE,147,4.0,-999.0,-999,0.00,,,0.05,,2013-05-27 15:43:00,
2013-05-27 10:53:00,69.0,-99.9,-100.00,SSE,147,4.0,-999.0,-999,0.00,,,0.05,,2013-05-27 15:53:00,
2013-05-27 11:00:00,69.0,-99.9,-100.00,SE,134,5.0,-999.0,-999,0.00,,,0.05,,2013-05-27 16:00:00,
2013-05-27 11:03:00,69.0,-99.9,-100.00,SSE,153,6.0,-999.0,-999,0.00,,,0.05,,2013-05-27 16:03:00,
2013-05-27 11:12:00,69.0,-99.9,-100.00,SSE,153,6.0,-999.0,-999,0.00,,,0.05,,2013-05-27 16:12:00,
2013-05-27 11:23:00,69.0,-99.9,-100.00,SSE,153,6.0,-999.0,-999,0.00,,,0.05,,2013-05-27 16:23:00,
2013-05-27 11:33:00,69.0,-99.9,-100.00,SE,134,5.0,-999.0,-999,0.00,,,0.05,,2013-05-27 16:33:00,
2013-05-27 11:42:00,69.0,-99.9,-100.00,SE,134,5.0,-999.0,-999,0.00,,,0.05,,2013-05-27 16:42:00,
2013-05-27 11:53:00,69.0,-99.9,-100.00,SE,134,5.0,-999.0,-999,0.00,,,0.05,,2013-05-27 16:53:00,
2013-05-27 12:32:00,67.0,-99.9,-100.00,WNW,288,2.0,-999.0,-999,0.28,,,0.33,,2013-05-27 17:32:00,
2013-05-27 12:43:00,67.0,-99.9,-100.00,WNW,288,2.0,-999.0,-999,0.28,,,0.33,,2013-05-27 17:43:00,
2013-05-27 12:52:00,67.0,-99.9,-100.00,WNW,288,2.0,-999.0,-999,0.28,,,0.33,,2013-05-27 17:52:00,
2013-05-27 13:02:00,65.0,-99.9,-100.00,NW,310,16.0,-999.0,-999,0.50,,,0.56,,2013-05-27 18:02:00,
2013-05-27 13:12:00,65.0,-99.9,-100.00,NW,310,16.0,-999.0,-999,0.50,,,0.56,,2013-05-27 18:12:00,
2013-05-27 13:22:00,65.0,-99.9,-100.00,NW,310,16.0,-999.0,-999,0.50,,,0.56,,2013-05-27 18:22:00,
2013-05-27 13:32:00,65.0,-99.9,-100.00,NW,322,8.0,-999.0,-999,0.33,,,0.66,,2013-05-27 18:32:00,
2013-05-27 13:42:00,65.0,-99.9,-100.00,NW,322,8.0,-999.0,-999,0.33,,,0.66,,2013-05-27 18:42:00,
2013-05-27 13:52:00,65.0,-99.9,-100.00,NW,322,8.0,-999.0,-999,0.33,,,0.66,,2013-05-27 18:52:00,
2013-05-27 14:01:00,65.0,-99.9,-100.00,NW,305,5.0,-999.0,-999,0.18,,,0.74,,2013-05-27 19:01:00,
2013-05-27 14:11:00,65.0,-99.9,-100.00,NW,305,5.0,-999.0,-999,0.18,,,0.74,,2013-05-27 19:11:00,
2013-05-27 14:22:00,65.0,-99.9,-100.00,NW,305,5.0,-999.0,-999,0.18,,,0.74,,2013-05-27 19:22:00,
2013-05-27 14:32:00,65.0,-99.9,-100.00,SW,217,2.0,-999.0,-999,0.19,,,0.85,,2013-05-27 19:32:00,
2013-05-27 14:42:00,65.0,-99.9,-100.00,SW,217,2.0,-999.0,-999,0.19,,,0.85,,2013-05-27 19:42:00,
2013-05-27 14:52:00,65.0,-99.9,-100.00,SW,217,2.0,-999.0,-999,0.19,,,0.85,,2013-05-27 19:52:00,
2013-05-27 15:02:00,65.0,-99.9,-100.00,SSE,149,5.0,-999.0,-999,0.21,,,0.95,,2013-05-27 20:02:00,
2013-05-27 15:11:00,65.0,-99.9,-100.00,SSE,149,5.0,-999.0,-999,0.21,,,0.95,,2013-05-27 20:11:00,
2013-05-27 15:22:00,65.0,-99.9,-100.00,SSE,149,5.0,-999.0,-999,0.21,,,0.95,,2013-05-27 20:22:00,
2013-05-27 15:32:00,66.0,-99.9,-100.00,SE,125,7.0,-999.0,-999,0.13,,,0.98,,2013-05-27 20:32:00,
2013-05-27 15:42:00,66.0,-99.9,-100.00,SE,125,7.0,-999.0,-999,0.13,,,0.98,,2013-05-27 20:42:00,
2013-05-27 15:53:00,66.0,-99.9,-100.00,SE,125,7.0,-999.0,-999,0.13,,,0.98,,2013-05-27 20:53:00,
2013-05-27 16:02:00,66.0,-99.9,-100.00,ESE,118,9.0,-999.0,-999,0.05,,,1.00,,2013-05-27 21:02:00,
2013-05-27 16:12:00,66.0,-99.9,-100.00,ESE,118,9.0,-999.0,-999,0.05,,,1.00,,2013-05-27 21:12:00,
2013-05-27 16:22:00,66.0,-99.9,-100.00,ESE,118,9.0,-999.0,-999,0.05,,,1.00,,2013-05-27 21:22:00,
2013-05-27 16:33:00,67.0,-99.9,-100.00,SE,131,9.0,-999.0,-999,0.02,,,1.00,,2013-05-27 21:33:00,
2013-05-27 16:43:00,67.0,-99.9,-100.00,SE,131,9.0,-999.0,-999,0.02,,,1.00,,2013-05-27 21:43:00,
2013-05-27 16:53:00,69.0,-99.9,-100.00,SE,132,3.0,-999.0,-999,0.00,,,1.00,,2013-05-27 21:53:00,
2013-05-27 17:03:00,69.0,-99.9,-100.00,SE,132,3.0,-999.0,-999,0.00,,,1.00,,2013-05-27 22:03:00,
2013-05-27 17:13:00,69.0,-99.9,-100.00,SE,132,3.0,-999.0,-999,0.00,,,1.00,,2013-05-27 22:13:00,
2013-05-27 17:23:00,69.0,-99.9,-100.00,SE,132,3.0,-999.0,-999,0.00,,,1.00,,2013-05-27 22:23:00,
2013-05-27 17:33:00,72.0,-99.9,-100.00,NW,309,3.0,-999.0,-999,0.00,,,1.00,,2013-05-27 22:33:00,
2013-05-27 17:42:00,72.0,-99.9,-100.00,NW,309,3.0,-999.0,-999,0.00,,,1.00,,2013-05-27 22:42:00,
2013-05-27 17:53:00,72.0,-99.9,-100.00,NW,309,3.0,-999.0,-999,0.00,,,1.00,,2013-05-27 22:53:00,
2013-05-27 18:02:00,71.0,-99.9,-100.00,West,275,3.0,-999.0,-999,0.00,,,1.00,,2013-05-27 23:02:00,
2013-05-27 18:12:00,71.0,-99.9,-100.00,West,275,3.0,-999.0,-999,0.00,,,1.00,,2013-05-27 23:12:00,
2013-05-27 18:22:00,71.0,-99.9,-100.00,West,275,3.0,-999.0,-999,0.00,,,1.00,,2013-05-27 23:22:00,
2013-05-27 18:32:00,73.0,-99.9,-100.00,NW,323,2.0,-999.0,-999,0.00,,,1.00,,2013-05-27 23:32:00,
2013-05-27 18:42:00,73.0,-99.9,-100.00,NW,323,2.0,-999.0,-999,0.00,,,1.00,,2013-05-27 23:42:00,
2013-05-27 18:52:00,73.0,-99.9,-100.00,NW,323,2.0,-999.0,-999,0.00,,,1.00,,2013-05-27 23:52:00,
2013-05-27 19:02:00,75.0,-99.9,-100.00,SSE,148,1.0,-999.0,-999,0.00,,,-99.99,,2013-05-28 00:02:00,
2013-05-27 19:12:00,75.0,-99.9,-100.00,SSE,148,1.0,-999.0,-999,0.00,,,-99.99,,2013-05-28 00:12:00,
2013-05-27 19:22:00,75.0,-99.9,-100.00,SSE,148,1.0,-999.0,-999,0.00,,,-99.99,,2013-05-28 00:22:00,
2013-05-27 19:32:00,72.0,-99.9,-100.00,SSE,147,1.0,-999.0,-999,0.00,,,1.00,,2013-05-28 00:32:00,
2013-05-27 19:42:00,72.0,-99.9,-100.00,SSE,147,1.0,-999.0,-999,0.00,,,1.00,,2013-05-28 00:42:00,
2013-05-27 19:52:00,72.0,-99.9,-100.00,SSE,147,1.0,-999.0,-999,0.00,,,1.00,,2013-05-28 00:52:00,
2013-05-27 20:01:00,69.0,-99.9,-100.00,SW,227,3.0,-999.0,-999,0.00,,,1.00,,2013-05-28 01:01:00,
2013-05-27 20:11:00,69.0,-99.9,-100.00,SW,227,3.0,-999.0,-999,0.00,,,1.00,,2013-05-28 01:11:00,
2013-05-27 20:22:00,69.0,-99.9,-100.00,SW,227,3.0,-999.0,-999,0.00,,,1.00,,2013-05-28 01:22:00,
2013-05-27 20:32:00,67.0,-99.9,-100.00,SW,232,3.0,-999.0,-999,0.00,,,1.00,,2013-05-28 01:32:00,
2013-05-27 20:42:00,67.0,-99.9,-100.00,SW,232,3.0,-999.0,-999,0.00,,,1.00,,2013-05-28 01:42:00,
2013-05-27 20:52:00,66.0,-99.9,-100.00,WSW,242,2.0,-999.0,-999,0.00,,,1.00,,2013-05-28 01:52:00,
2013-05-27 21:02:00,66.0,-99.9,-100.00,WSW,242,2.0,-999.0,-999,0.00,,,1.00,,2013-05-28 02:02:00,
2013-05-27 21:11:00,66.0,-99.9,-100.00,WSW,242,2.0,-999.0,-999,0.00,,,1.00,,2013-05-28 02:11:00,
2013-05-27 21:22:00,66.0,-99.9,-100.00,WSW,242,2.0,-999.0,-999,0.00,,,1.00,,2013-05-28 02:22:00,
2013-05-27 21:32:00,66.0,-99.9,-100.00,SW,236,3.0,-999.0,-999,0.00,,,1.00,,2013-05-28 02:32:00,
2013-05-27 21:42:00,66.0,-99.9,-100.00,SW,236,3.0,-999.0,-999,0.00,,,1.00,,2013-05-28 02:42:00,
2013-05-27 21:52:00,66.0,-99.9,-100.00,SW,236,3.0,-999.0,-999,0.00,,,1.00,,2013-05-28 02:52:00,
2013-05-27 22:01:00,65.0,-99.9,-100.00,SW,214,2.0,-999.0,-999,0.00,,,1.00,,2013-05-28 03:01:00,
2013-05-27 22:11:00,65.0,-99.9,-100.00,SW,214,2.0,-999.0,-999,0.00,,,1.00,,2013-05-28 03:11:00,
2013-05-27 22:22:00,65.0,-99.9,-100.00,SW,214,2.0,-999.0,-999,0.00,,,1.00,,2013-05-28 03:22:00,
2013-05-27 22:33:00,66.0,-99.9,-100.00,ESE,110,2.0,-999.0,-999,0.00,,,1.00,,2013-05-28 03:33:00,
2013-05-27 22:43:00,66.0,-99.9,-100.00,ESE,110,2.0,-999.0,-999,0.00,,,1.00,,2013-05-28 03:43:00,
2013-05-27 22:53:00,66.0,-99.9,-100.00,ESE,110,2.0,-999.0,-999,0.00,,,1.00,,2013-05-28 03:53:00,
2013-05-27 23:03:00,69.0,-99.9,-100.00,ESE,120,8.0,-999.0,-999,0.00,,,1.00,,2013-05-28 04:03:00,
2013-05-27 23:13:00,69.0,-99.9,-100.00,ESE,120,8.0,-999.0,-999,0.00,,,1.00,,2013-05-28 04:13:00,
2013-05-27 23:23:00,69.0,-99.9,-100.00,ESE,120,8.0,-999.0,-999,0.00,,,1.00,,2013-05-28 04:23:00,
2013-05-27 23:30:00,70.0,-99.9,-100.00,ESE,114,9.0,-999.0,-999,0.00,,,1.00,,2013-05-28 04:30:00,
2013-05-27 23:33:00,70.0,-99.9,-100.00,ESE,122,10.0,-999.0,-999,0.00,,,1.00,,2013-05-28 04:33:00,
2013-05-27 23:43:00,70.0,-99.9,-100.00,ESE,122,10.0,-999.0,-999,0.00,,,1.00,,2013-05-28 04:43:00,
2013-05-27 23:53:00,70.0,-99.9,-100.00,ESE,122,10.0,-999.0,-999,0.00,,,1.00,,2013-05-28 04:53:00,